Location: Unspecified
(0.0000°N, 0.0000°E)
Time: 10:12:01
(UTC+00:00)

deb Delta 104 - Pass Details

Date: 09 March 2026
Orbit: 754 x 1064 km, 103.0° (Epoch: 20 April)

Event Time Altitude Azimuth Distance (km) Brightness Sun altitude
Rises 19:21:25 0° 169° (S) 3,789 ? -17.7°
Reaches altitude 10° 19:24:00 10° 171° (S) 2,805 ? -18.3°
Maximum altitude 19:30:14 66° 252° (WSW) 1,052 ? -19.9°
Drops below altitude 10° 19:36:01 10° 334° (NNW) 2,601 ? -21.3°
Sets 19:38:20 0° 337° (NNW) 3,496 ? -21.9°
